Weather History for KMVY - April, 2014

Change the Weather History Date:

Tuesday, April 22, 2014

  Actual Average Record
Temperature  
Mean Temperature 48 °F -  
Max Temperature 61 °F 55 °F 73 °F (1957)
Min Temperature 36 °F 40 °F 24 °F (2006)
Degree Days  
Heating Degree Days 16    
Moisture  
Dew Point 42 °F    
Average Humidity 78    
Maximum Humidity 97    
Minimum Humidity 55    
Precipitation  
Precipitation 0.05 in - - ()
Sea Level Pressure  
Sea Level Pressure 29.70 in    
Wind  
Wind Speed 6 mph (SW)    
Max Wind Speed 17 mph    
Max Gust Speed -    
Visibility 9 miles    
Events Fog , Rain    
Averages and records for this station are not official NWS values.
T = Trace of Precipitation, MM = Missing Value Source: NWS Daily Summary

Daily Weather History Graph

Daily Weather History Graph

Search for Another Location

Airport or City:

Trip Planner

Search our weather history database for the weather conditions in past years. The results will help you decide how hot, cold, wet, or windy it might be!

Date:

Astronomy

Apr. 22, 2014 Rise Set
Actual Time 5:52 AM EDT 7:30 PM EDT
Civil Twilight 5:23 AM EDT 7:59 PM EDT
Nautical Twilight 4:47 AM EDT 8:35 PM EDT
Astronomical Twilight 4:10 AM EDT 9:13 PM EDT
Moon 1:43 AM EDT (4/22) 12:23 PM EDT (4/22)
Length of Visible Light 14h 36m
Length of Day
13h 38m
Last Quarter, 46% of the Moon is Illuminated
Apr 22
Last Quarter
Apr 29
New
May 6
First Quarter
May 14
Full
May 21
Last Quarter

Hourly Weather History & Observations

Time (EDT) Temp. Windchill Dew Point Humidity Pressure Visibility Wind Dir Wind Speed Gust Speed Precip Events Conditions
12:53 AM 46.9 °F - 43.0 °F 86% 29.88 in 10.0 mi SW 4.6 mph - N/A   Clear
1:53 AM 44.1 °F 40.1 °F 39.9 °F 85% 29.85 in 10.0 mi SW 6.9 mph - N/A   Clear
2:53 AM 42.1 °F - 39.9 °F 92% 29.83 in 10.0 mi Calm Calm - N/A   Clear
3:53 AM 42.1 °F 38.4 °F 39.0 °F 89% 29.81 in 10.0 mi SW 5.8 mph - N/A   Clear
4:32 AM 39.0 °F - 35.1 °F 86% 29.80 in 1.5 mi Calm Calm - N/A   Clear
4:44 AM 37.0 °F - 34.0 °F 89% 29.80 in 4.0 mi Calm Calm - N/A   Clear
4:53 AM 37.9 °F - 34.0 °F 86% 29.80 in 8.0 mi Calm Calm - N/A   Clear
5:53 AM 36.0 °F - 32.0 °F 86% 29.79 in 10.0 mi Calm Calm - N/A   Clear
6:07 AM 37.0 °F - 34.0 °F 89% 29.78 in 1.8 mi Calm Calm - N/A   Clear
6:13 AM 37.0 °F - 34.0 °F 89% 29.78 in 0.2 mi Calm Calm - N/A Fog Fog
6:25 AM 36.0 °F - 35.1 °F 97% 29.78 in 1.0 mi Calm Calm - N/A   Clear
6:34 AM 37.0 °F - 35.1 °F 93% 29.78 in 10.0 mi Calm Calm - N/A   Clear
6:53 AM 43.0 °F - 39.0 °F 86% 29.78 in 10.0 mi Calm Calm - N/A   Clear
7:53 AM 53.1 °F - 44.1 °F 71% 29.77 in 10.0 mi SW 6.9 mph - N/A   Clear
8:53 AM 57.0 °F - 43.0 °F 59% 29.75 in 10.0 mi SW 9.2 mph - N/A   Clear
9:53 AM 60.1 °F - 44.1 °F 55% 29.73 in 10.0 mi SSW 12.7 mph - N/A   Clear
10:53 AM 60.1 °F - 44.1 °F 55% 29.72 in 10.0 mi SSW 15.0 mph - N/A   Clear
11:53 AM 57.9 °F - 44.1 °F 60% 29.70 in 10.0 mi SSW 12.7 mph - N/A   Clear
12:53 PM 59.0 °F - 45.0 °F 60% 29.68 in 10.0 mi SSW 13.8 mph - N/A   Clear
1:53 PM 61.0 °F - 46.0 °F 58% 29.66 in 10.0 mi SW 16.1 mph - N/A   Clear
2:53 PM 59.0 °F - 46.9 °F 64% 29.64 in 10.0 mi SSW 12.7 mph - N/A   Clear
3:53 PM 57.0 °F - 46.0 °F 67% 29.61 in 10.0 mi SW 17.3 mph - N/A   Clear
4:53 PM 59.0 °F - 46.0 °F 62% 29.60 in 10.0 mi SW 15.0 mph - N/A   Clear
5:53 PM 55.0 °F - 46.0 °F 72% 29.59 in 10.0 mi SW 12.7 mph - N/A   Clear
6:53 PM 53.1 °F - 46.0 °F 77% 29.57 in 10.0 mi SW 11.5 mph - N/A   Clear
7:53 PM 52.0 °F - 45.0 °F 77% 29.57 in 10.0 mi SW 9.2 mph - N/A   Clear
8:32 PM 51.1 °F - 46.0 °F 83% 29.57 in 10.0 mi SSW 9.2 mph - N/A   Mostly Cloudy
8:53 PM 51.1 °F - 46.0 °F 83% 29.57 in 10.0 mi SSW 10.4 mph - N/A   Mostly Cloudy
9:01 PM 51.1 °F - 46.0 °F 83% 29.57 in 10.0 mi SSW 11.5 mph - N/A   Scattered Clouds
9:53 PM 51.1 °F - 46.9 °F 86% 29.56 in 10.0 mi SSW 9.2 mph - 0.01 in Rain Light Rain
10:53 PM 52.0 °F - 48.9 °F 89% 29.54 in 10.0 mi SW 8.1 mph - 0.02 in Rain Light Rain
11:53 PM 52.0 °F - 48.0 °F 86% 29.52 in 8.0 mi SSW 10.4 mph - 0.02 in Rain Light Rain